Temp
60 60 60 60 60 59 60 60 59 58 57 57 57 58 58 58 58 57 57 57 57 57 57 58 59 58 55 61 63 75 71 73 73 74 70 67 64 59 56 57 59 56 55 59 59 60 57
60 60 59 59 59 59 60 59 58 57 57 57 57 57 57 57 58 57 57 57 56 57 57 57 58 58 58 57 72 74 74 75 72 69 68 69 63 61 61 58 57 57 57 56 58 59 57
60 59 59 59 59 58 58 57 57 57 57 57 57 57 57 57 57 57 57 57 56 56 57 57 58 59 63 63 70 72 75 68 69 69 67 66 65 64 60 57 61 58 55 57 58 56 55
60 59 59 59 58 58 57 57 57 57 57 57 57 57 57 57 57 57 57 56 56 57 57 57 58 60 60 73 70 75 73 72 73 71 69 68 68 64 60 59 57 53 51 47 57 55 56
59 59 59 59 58 58 57 57 57 57 57 57 57 57 57 57 56 56 56 56 56 57 57 57 58 62 59 75 72 72 71 69 71 72 70 74 67 57 57 50 47 46 41 43 50 55 54
60 59 59 59 58 58 58 57 56 56 57 57 57 57 57 57 56 55 55 56 57 55 58 63 66 60 68 65 69 71 70 70 67 65 66 63 56 52 49 48 39 40 41 37 41 51 52
59 59 59 59 58 58 59 58 56 56 57 57 57 58 57 57 56 55 53 53 60 60 63 58 58 60 63 71 70 69 67 67 65 62 53 55 51 45 46 48 49 47 43 41 43 50 50
59 59 59 59 58 59 59 58 56 56 56 57 57 57 57 57 57 55 56 59 57 60 54 62 63 63 67 66 63 67 69 62 59 52 52 52 46 51 54 53 50 48 43 42 48 50 47
58 58 58 58 58 58 58 58 56 56 56 56 56 56 56 56 58 59 59 57 62 60 54 61 63 63 64 68 60 63 65 59 56 53 51 47 50 56 54 50 48 45 43 42 45 48 45
58 57 57 57 58 58 57 56 56 56 56 55 56 56 56 58 62 57 57 59 60 60 44 53 61 64 67 64 59 64 64 60 57 50 50 50 54 53 51 49 47 41 49 47 45 41 38
57 57 57 57 57 56 55 55 56 56 55 56 55 55 57 63 60 58 60 59 60 60 29 56 61 69 65 61 58 63 64 62 51 51 51 47 49 50 49 48 49 48 49 45 44 40 38
57 57 57 57 56 56 55 55 55 55 55 55 55 55 57 62 57 55 59 57 60 39 32 51 59 58 58 59 58 60 58 61 56 52 52 48 53 51 49 52 50 53 46 45 42 39 32
57 57 57 56 56 55 55 55 55 55 55 55 55 57 61 60 57 57 57 57 42 32 54 49 52 56 53 52 54 54 50 47 44 42 39 48 48 52 53 48 51 48 39 29 29 27 28
56 56 56 56 56 55 55 55 55 54 54 55 55 58 58 59 57 58 57 48 37 46 47 54 53 53 49 51 50 50 48 44 48 45 38 37 36 48 54 47 43 43 40 28 25 21 27
56 56 56 56 56 55 55 55 55 55 54 54 57 56 55 58 58 57 52 34 37 45 50 50 52 47 46 50 49 48 44 44 46 46 39 35 39 50 50 49 48 43 36 42 31 22 23
56 56 56 55 55 55 55 55 55 55 54 55 57 54 55 57 57 55 42 41 46 52 53 52 45 46 42 46 45 45 43 48 46 49 47 43 37 45 49 50 51 47 48 35 31 21 22
55 55 55 55 54 54 55 55 55 54 54 55 56 52 58 56 57 49 36 38 50 54 54 51 47 45 45 43 45 42 43 48 49 49 49 44 41 41 45 43 40 42 37 38 38 32 23
54 54 54 54 54 54 55 54 54 54 54 56 51 47 57 56 49 39 42 48 51 52 55 53 51 49 46 45 43 43 43 47 51 49 44 44 37 31 39 45 46 43 40 39 27 29 28
54 54 54 54 53 54 54 53 52 53 54 54 50 50 56 57 38 32 47 50 52 52 51 50 48 50 49 44 39 45 46 49 50 48 43 44 35 28 36 41 44 40 41 40 34 31 29
53 54 54 54 53 54 53 50 51 53 53 52 50 42 47 48 45 47 45 45 47 53 51 50 49 50 47 44 45 41 43 48 50 48 48 48 38 35 28 35 37 35 39 39 37 30 30
53 54 53 53 52 53 50 50 52 53 52 54 47 43 46 38 42 45 46 48 46 46 51 51 48 48 45 38 39 38 43 46 48 48 45 44 35 36 38 40 39 39 38 38 34 36 33
53 53 52 51 51 52 50 49 51 53 53 51 47 46 45 43 47 46 41 45 46 47 49 46 46 46 46 41 42 38 42 41 42 44 40 41 32 32 32 36 36 33 37 37 37 37 36
52 53 51 51 52 51 50 49 50 52 54 50 46 47 49 38 40 38 38 46 48 49 49 50 49 45 39 46 48 47 48 47 44 41 39 38 30 29 26 32 31 28 35 35 36 39 38
52 52 52 52 53 52 49 49 52 52 52 51 48 47 41 34 32 39 46 48 47 47 47 49 48 42 48 51 49 46 44 41 40 41 43 32 29 28 25 32 24 39 43 44 39 41 43
52 52 52 53 53 53 50 51 52 52 53 51 48 48 41 33 36 41 46 46 46 47 45 47 48 48 49 44 34 31 31 32 32 38 37 37 32 29 30 29 32 40 43 37 36 36 41
52 52 52 52 52 52 52 52 52 52 52 53 50 47 45 37 39 48 45 45 37 35 37 41 47 47 45 31 30 23 23 30 32 35 37 36 30 27 29 26 25 36 41 43 41 30 40
51 52 52 52 52 51 52 52 52 52 52 53 50 50 48 38 44 47 41 42 43 38 38 36 42 40 41 30 29 23 26 33 28 24 24 27 30 32 32 28 30 39 42 45 31 33 43
51 51 51 51 51 51 51 52 52 52 52 53 50 51 49 40 44 49 50 46 44 41 36 41 40 36 36 33 29 30 20 29 29 34 30 30 25 22 27 26 23 42 42 36 41 43 46
51 51 50 50 50 50 51 51 51 51 52 53 50 51 50 46 47 48 50 51 51 51 44 39 42 39 37 33 33 29 27 28 30 30 35 31 35 33 36 32 41 47 46 49 48 44 42
MSLP
1018.21 1017.91 1017.39 1017.06 1016.49 1016.11 1015.99 1015.52 1015.16 1015.10 1015.05 1015.00 1015.11 1015.18 1015.22 1015.29 1015.40 1015.49 1015.37 1015.22 1015.09 1015.07 1014.99 1014.67 1014.26 1014.47 1014.56 1013.88 1012.49 1011.08 1010.65 1010.52 1010.62 1010.52 1010.88 1011.26 1011.68 1012.14 1012.71 1012.86 1013.08 1013.81 1013.92 1013.98 1013.97 1014.31 1014.28
1018.15 1017.89 1017.45 1016.97 1016.47 1016.01 1015.74 1015.16 1015.08 1014.93 1014.85 1014.78 1014.84 1014.92 1014.90 1014.99 1015.12 1015.14 1015.22 1015.18 1015.18 1014.97 1014.76 1014.56 1014.56 1014.65 1014.25 1012.91 1011.34 1011.11 1010.72 1010.69 1011.27 1011.43 1011.34 1011.52 1012.11 1012.25 1012.65 1013.02 1013.54 1013.79 1013.71 1013.79 1014.20 1014.17 1014.06
1018.11 1017.76 1017.39 1017.05 1016.62 1015.93 1015.48 1015.30 1014.92 1014.60 1014.54 1014.56 1014.48 1014.38 1014.47 1014.60 1014.70 1014.84 1014.86 1014.85 1014.78 1014.78 1014.71 1014.63 1014.45 1014.08 1013.11 1012.16 1011.37 1011.02 1011.00 1011.24 1011.36 1011.42 1011.47 1011.77 1011.74 1012.09 1012.68 1013.39 1014.09 1013.88 1014.00 1014.12 1014.77 1014.33 1014.44
1017.99 1017.75 1017.32 1016.99 1016.62 1016.23 1015.70 1015.28 1015.05 1014.74 1014.57 1014.48 1014.40 1014.28 1014.25 1014.32 1014.38 1014.50 1014.59 1014.57 1014.65 1014.72 1014.70 1014.40 1014.08 1013.62 1012.58 1011.42 1011.31 1011.28 1011.23 1011.30 1011.23 1011.19 1011.32 1011.51 1011.92 1012.50 1013.38 1013.61 1014.36 1015.24 1015.29 1015.46 1015.44 1015.05 1015.16
1017.98 1017.81 1017.40 1017.01 1016.48 1016.11 1015.69 1015.34 1015.13 1014.93 1014.80 1014.58 1014.34 1014.24 1014.17 1014.10 1014.21 1014.36 1014.55 1014.69 1014.71 1014.65 1014.50 1014.15 1013.89 1013.15 1012.67 1011.45 1011.55 1011.68 1011.67 1011.82 1011.53 1011.40 1011.60 1011.81 1012.43 1014.22 1014.41 1015.16 1016.09 1016.72 1016.87 1016.70 1016.21 1015.94 1016.03
1017.99 1017.73 1017.49 1017.04 1016.53 1016.00 1015.59 1015.34 1015.11 1014.84 1014.65 1014.51 1014.20 1014.00 1013.94 1013.87 1013.83 1014.11 1014.34 1014.55 1014.60 1014.52 1014.10 1013.76 1013.55 1013.54 1012.86 1012.67 1012.27 1012.13 1011.98 1011.93 1012.11 1012.23 1012.62 1013.34 1014.31 1015.23 1016.06 1016.33 1017.39 1017.45 1017.31 1017.07 1016.92 1016.62 1016.50
1018.09 1017.78 1017.58 1017.27 1016.75 1016.15 1015.74 1015.33 1014.97 1014.82 1014.51 1014.22 1014.11 1014.00 1013.88 1013.75 1013.86 1014.24 1014.66 1014.84 1015.08 1014.75 1014.14 1014.52 1014.35 1013.88 1013.36 1012.89 1012.64 1012.55 1012.44 1012.40 1012.75 1013.44 1014.54 1014.93 1015.76 1016.67 1016.84 1016.85 1016.96 1017.13 1017.36 1017.41 1017.17 1017.03 1017.23
1018.20 1017.84 1017.75 1017.45 1017.00 1016.47 1015.96 1015.40 1015.10 1014.84 1014.50 1014.30 1014.15 1013.99 1013.91 1013.86 1013.84 1014.16 1014.38 1015.09 1015.40 1015.25 1014.87 1014.29 1014.02 1013.61 1013.15 1013.05 1013.11 1013.01 1012.58 1013.31 1013.93 1014.86 1015.12 1015.84 1016.57 1016.69 1016.85 1016.96 1017.12 1017.20 1017.54 1017.86 1017.58 1017.45 1017.68
1018.16 1018.04 1017.87 1017.62 1017.26 1016.78 1016.24 1015.64 1015.18 1014.89 1014.65 1014.41 1014.23 1014.00 1013.75 1013.61 1013.85 1014.40 1014.65 1015.33 1014.98 1014.87 1015.12 1014.68 1014.05 1013.64 1013.42 1013.40 1013.89 1013.87 1013.70 1014.16 1014.73 1015.31 1015.99 1016.53 1016.99 1016.78 1016.92 1017.38 1017.55 1017.60 1017.78 1018.08 1018.49 1018.09 1017.98
1018.21 1018.09 1017.99 1017.90 1017.54 1017.03 1016.45 1015.96 1015.38 1015.02 1014.78 1014.59 1014.34 1014.04 1013.62 1013.25 1013.62 1014.70 1015.21 1015.31 1015.01 1014.81 1015.75 1015.69 1014.30 1013.54 1013.46 1013.64 1014.46 1014.48 1014.52 1014.78 1015.43 1016.24 1016.62 1017.13 1017.14 1017.16 1017.42 1017.67 1017.92 1018.00 1017.99 1018.43 1018.69 1019.07 1019.04
1018.22 1018.16 1018.12 1018.01 1017.68 1017.17 1016.67 1016.15 1015.59 1015.18 1014.86 1014.66 1014.33 1014.07 1013.67 1013.02 1014.19 1014.97 1015.47 1015.15 1014.82 1014.93 1016.47 1016.03 1014.48 1013.45 1013.99 1014.65 1015.29 1015.35 1015.30 1015.21 1016.42 1017.10 1017.39 1018.02 1017.68 1017.76 1017.87 1018.06 1018.12 1018.22 1018.30 1018.60 1018.96 1019.54 1019.76
1018.14 1018.15 1018.16 1017.97 1017.70 1017.32 1016.81 1016.23 1015.66 1015.25 1014.92 1014.65 1014.36 1014.07 1013.88 1014.01 1014.73 1015.38 1015.13 1014.92 1015.39 1016.43 1016.92 1016.15 1015.06 1014.70 1015.10 1015.66 1016.31 1016.54 1016.43 1016.23 1017.19 1017.79 1018.18 1018.55 1018.10 1018.16 1018.15 1018.04 1018.23 1018.42 1018.84 1019.44 1020.15 1020.65 1021.10
1018.23 1018.20 1018.19 1018.00 1017.77 1017.43 1016.89 1016.33 1015.75 1015.26 1014.89 1014.62 1014.36 1014.08 1014.01 1014.58 1015.44 1015.25 1015.19 1015.86 1017.07 1017.77 1017.38 1016.80 1016.09 1015.87 1016.42 1017.19 1017.67 1018.01 1018.48 1018.66 1019.32 1019.54 1020.15 1019.58 1019.18 1018.77 1018.46 1018.54 1018.61 1019.09 1020.02 1021.07 1022.21 1022.46 1022.77
1018.25 1018.24 1018.13 1018.05 1017.84 1017.51 1016.98 1016.43 1015.82 1015.25 1014.83 1014.49 1014.27 1014.15 1014.89 1015.22 1015.28 1015.12 1015.77 1017.05 1018.02 1018.23 1017.64 1017.04 1016.75 1016.87 1017.64 1018.03 1018.80 1019.20 1019.70 1020.44 1020.36 1020.61 1021.13 1021.04 1020.17 1019.59 1019.17 1019.38 1019.77 1020.29 1021.29 1022.83 1024.05 1024.96 1024.12
1018.32 1018.33 1018.24 1018.08 1017.82 1017.49 1017.04 1016.53 1015.87 1015.31 1014.82 1014.47 1014.35 1015.04 1015.56 1015.62 1015.38 1015.48 1016.76 1018.37 1018.88 1018.49 1017.83 1017.41 1017.40 1017.88 1018.43 1018.59 1019.03 1019.81 1020.63 1021.07 1021.16 1021.09 1021.45 1021.62 1021.02 1020.15 1019.79 1019.84 1020.13 1020.70 1021.93 1023.03 1024.52 1026.13 1025.78
1018.29 1018.33 1018.22 1018.06 1017.84 1017.61 1017.18 1016.59 1015.99 1015.45 1014.94 1014.62 1014.91 1015.79 1016.20 1015.74 1015.60 1016.24 1018.09 1019.18 1018.87 1018.30 1017.76 1017.66 1018.15 1018.65 1019.13 1019.47 1019.70 1020.18 1020.87 1021.16 1021.25 1021.35 1021.33 1021.93 1021.79 1021.00 1020.47 1020.27 1020.49 1020.99 1022.27 1023.37 1024.75 1026.43 1026.37
1018.22 1018.28 1018.18 1018.15 1017.95 1017.76 1017.36 1016.76 1016.14 1015.54 1015.08 1014.72 1015.38 1016.21 1016.03 1015.75 1015.87 1017.18 1019.42 1019.36 1018.72 1018.19 1017.78 1018.13 1018.52 1019.04 1019.63 1019.96 1020.29 1020.78 1021.29 1021.30 1021.27 1021.52 1021.62 1022.18 1022.52 1021.97 1021.42 1021.61 1021.78 1022.05 1022.87 1024.13 1025.25 1026.35 1026.78
1018.28 1018.22 1018.21 1018.25 1018.05 1017.85 1017.49 1016.99 1016.34 1015.71 1015.01 1014.72 1015.97 1016.93 1016.16 1016.06 1017.20 1019.02 1019.54 1019.02 1018.52 1018.45 1018.03 1018.38 1018.78 1019.37 1019.94 1020.47 1020.97 1021.14 1021.41 1021.56 1021.47 1021.74 1022.32 1022.94 1023.52 1023.47 1022.81 1022.36 1022.32 1022.73 1023.63 1024.57 1025.97 1026.95 1027.04
1018.26 1018.33 1018.23 1018.31 1018.12 1018.05 1017.67 1017.32 1016.72 1016.02 1015.53 1015.72 1016.96 1017.19 1016.32 1016.21 1018.52 1020.09 1019.59 1019.26 1018.90 1018.64 1018.83 1018.96 1019.55 1019.92 1020.38 1021.19 1021.68 1021.68 1021.82 1022.02 1021.93 1022.15 1022.72 1023.25 1024.23 1024.55 1023.49 1023.37 1023.35 1023.58 1024.11 1024.76 1025.93 1026.66 1026.79
1018.18 1018.36 1018.40 1018.26 1018.33 1018.13 1017.91 1017.56 1016.96 1016.25 1015.72 1015.87 1017.55 1018.28 1017.96 1018.22 1019.27 1019.55 1019.80 1019.67 1019.36 1019.01 1019.29 1019.61 1020.20 1020.32 1021.02 1021.77 1021.98 1022.32 1022.45 1022.37 1022.42 1022.68 1023.02 1023.51 1024.89 1025.47 1025.56 1024.98 1024.60 1024.56 1024.56 1024.93 1025.58 1026.28 1025.81
1018.10 1018.39 1018.38 1018.39 1018.35 1018.10 1018.15 1017.57 1016.93 1016.28 1015.81 1016.16 1018.00 1019.49 1019.62 1020.47 1020.46 1020.16 1019.89 1019.90 1019.73 1019.58 1019.66 1020.04 1020.76 1021.11 1021.56 1022.38 1022.70 1022.99 1023.07 1023.02 1022.98 1023.29 1023.74 1024.53 1025.70 1026.08 1025.95 1025.43 1024.95 1024.34 1024.28 1024.60 1025.14 1024.87 1025.15
1017.99 1018.37 1018.45 1018.48 1018.44 1018.27 1018.17 1017.70 1017.15 1016.45 1015.97 1016.66 1018.44 1019.31 1020.21 1020.82 1020.86 1020.61 1020.73 1020.41 1020.06 1020.11 1020.15 1020.65 1021.15 1021.69 1021.92 1022.53 1022.90 1023.26 1023.49 1023.70 1023.81 1024.07 1024.68 1025.55 1026.27 1026.71 1026.51 1025.99 1025.60 1024.66 1023.68 1023.72 1023.75 1023.74 1023.49
1017.86 1018.29 1018.49 1018.44 1018.39 1018.32 1018.22 1017.86 1017.51 1016.72 1016.21 1017.52 1018.74 1018.95 1019.45 1021.74 1021.74 1021.55 1021.35 1020.52 1020.29 1020.23 1020.85 1020.85 1021.37 1022.03 1022.45 1022.59 1022.82 1023.15 1023.50 1023.82 1024.31 1024.82 1025.60 1026.52 1027.38 1028.00 1027.43 1026.84 1025.95 1024.28 1022.51 1022.58 1022.65 1022.49 1022.29
1017.73 1018.03 1018.25 1018.37 1018.44 1018.51 1018.41 1018.10 1017.79 1017.25 1016.79 1017.50 1018.52 1019.04 1020.32 1022.40 1022.37 1021.87 1021.18 1020.73 1020.78 1020.72 1021.06 1021.59 1021.90 1022.26 1022.68 1022.72 1023.34 1023.88 1024.43 1025.02 1025.12 1025.44 1025.84 1026.98 1028.01 1028.52 1028.34 1027.41 1026.27 1022.76 1021.95 1021.64 1021.82 1021.66 1021.13
1017.48 1017.87 1018.12 1018.32 1018.46 1018.57 1018.56 1018.24 1018.02 1017.71 1017.24 1017.59 1018.45 1019.03 1020.48 1022.15 1022.53 1021.82 1021.44 1021.30 1021.37 1021.42 1021.82 1022.06 1022.47 1022.90 1023.03 1023.88 1025.41 1026.56 1026.66 1026.38 1026.36 1026.48 1026.60 1026.93 1028.11 1028.71 1028.30 1027.17 1025.22 1022.82 1021.10 1021.05 1021.21 1021.08 1020.64
1017.31 1017.78 1018.10 1018.30 1018.42 1018.61 1018.68 1018.53 1018.33 1018.01 1017.57 1017.77 1018.69 1018.91 1019.81 1021.41 1022.03 1021.22 1021.47 1021.60 1022.20 1022.84 1022.90 1022.99 1023.21 1023.41 1023.86 1025.80 1027.46 1028.66 1028.70 1028.28 1027.57 1027.16 1027.56 1027.99 1028.10 1028.40 1028.21 1027.10 1025.09 1022.02 1020.84 1020.73 1020.96 1021.01 1020.92
1017.16 1017.63 1018.02 1018.31 1018.49 1018.64 1018.80 1018.80 1018.59 1018.26 1017.91 1017.92 1018.98 1018.95 1019.48 1021.28 1021.24 1020.96 1021.05 1021.63 1021.91 1022.68 1023.40 1023.61 1023.87 1024.47 1025.09 1027.04 1028.85 1029.90 1029.59 1028.79 1028.43 1027.96 1027.76 1028.09 1028.25 1027.88 1027.31 1026.33 1024.15 1021.36 1020.85 1020.81 1021.22 1021.43 1020.87
1016.82 1017.42 1017.82 1018.19 1018.48 1018.61 1018.76 1018.89 1018.83 1018.62 1018.28 1018.16 1019.32 1019.11 1019.45 1020.88 1021.00 1020.64 1020.53 1020.83 1021.59 1022.11 1023.04 1023.80 1024.75 1025.34 1026.66 1027.85 1028.94 1029.61 1029.59 1028.72 1028.10 1027.17 1026.82 1027.02 1027.03 1026.78 1026.53 1025.65 1023.31 1021.20 1021.34 1021.56 1021.02 1020.42 1020.82
1016.48 1017.09 1017.58 1017.94 1018.30 1018.56 1018.78 1019.01 1019.06 1018.98 1018.64 1018.35 1019.34 1019.41 1019.53 1020.33 1021.11 1020.85 1020.42 1020.20 1020.23 1020.67 1021.73 1023.28 1024.15 1024.63 1025.53 1026.96 1028.22 1028.98 1029.18 1028.78 1027.75 1027.08 1026.19 1026.03 1024.76 1024.67 1024.59 1023.20 1021.54 1021.04 1020.82 1020.77 1020.63 1020.85 1020.96
Wind_Speed
9 10 12 12 13 13 12 11 10 8 7 8 8 9 11 10 9 8 8 9 9 10 11 13 13 12 4 4 1 4 9 7 3 6 8 4 8 3 4 3 4 4 2 4 2 6 3
8 9 11 12 13 14 12 12 9 7 7 7 7 9 9 9 8 8 9 10 9 9 10 11 12 12 1 6 3 7 8 5 4 4 4 7 3 1 5 3 4 1 1 1 1 3 1
8 10 10 10 11 13 13 10 9 8 6 6 6 6 7 7 8 9 9 9 8 8 9 12 12 4 4 2 4 8 8 2 2 1 4 1 1 5 3 3 5 3 5 6 7 5 2
9 10 12 11 11 11 10 9 7 6 5 5 5 5 6 8 9 9 9 8 7 7 9 11 9 3 1 3 4 5 7 5 5 3 3 1 2 6 6 1 7 6 6 6 6 2 3
8 9 11 11 12 12 10 9 7 4 2 2 2 4 6 7 8 7 3 3 4 7 9 7 2 4 3 9 6 5 5 4 6 6 7 4 8 4 8 5 6 8 1 2 8 5 5
8 10 11 12 13 14 13 10 7 6 4 1 1 1 1 3 2 1 2 1 4 5 5 3 2 6 8 4 5 5 5 4 4 3 6 10 7 5 6 7 1 2 2 2 3 6 7
8 10 12 13 14 14 14 12 10 8 6 6 5 3 2 3 3 5 6 1 6 7 10 4 2 3 3 7 3 6 3 3 5 10 5 6 9 3 3 1 0 0 1 2 3 1 5
7 9 11 13 14 15 15 14 11 9 8 7 6 5 4 5 5 9 2 7 2 3 4 2 3 2 2 1 6 10 5 6 7 3 2 8 4 1 5 5 3 2 2 4 6 3 0
7 9 10 13 14 14 14 15 12 11 9 8 7 6 6 5 8 5 6 4 2 2 6 6 3 2 3 4 4 9 6 2 5 6 6 6 1 4 5 6 7 4 2 2 5 7 1
6 8 10 11 12 13 14 14 12 11 10 8 7 7 7 3 10 1 4 2 2 2 7 8 6 3 4 2 5 3 5 3 7 3 2 4 4 5 6 4 2 4 2 2 4 2 2
6 7 9 10 12 12 13 13 12 11 10 8 7 7 7 4 6 4 1 2 2 6 7 5 7 2 4 7 2 12 4 6 4 4 5 2 3 6 7 2 1 7 4 2 1 3 3
7 7 9 10 11 11 13 13 13 12 9 7 7 5 1 6 4 1 2 3 6 11 1 3 2 5 5 8 6 6 9 8 3 6 7 2 3 3 2 3 2 6 4 6 4 2 4
6 7 8 9 10 11 13 14 14 12 9 6 5 6 6 2 2 1 2 5 7 7 4 2 3 4 5 6 6 7 7 10 5 4 6 7 4 5 3 5 6 9 7 4 7 7 5
6 7 8 9 10 10 12 13 14 13 10 5 4 6 5 3 2 2 5 8 7 3 1 1 3 5 5 4 5 7 4 6 6 5 3 4 6 5 6 1 2 3 4 5 2 1 6
5 7 8 8 9 11 11 13 14 14 11 5 4 3 4 4 3 3 8 7 7 6 1 2 4 5 4 3 5 5 4 2 2 4 4 3 4 5 2 2 1 2 5 2 6 2 4
4 6 8 8 9 11 11 13 14 15 12 7 4 3 2 6 2 6 8 4 1 4 1 2 4 0 2 5 4 4 2 1 2 4 1 1 2 1 5 2 5 6 4 4 4 2 4
4 5 7 8 9 10 12 13 14 15 14 4 5 5 4 5 4 7 5 4 3 2 2 3 3 3 3 2 3 2 1 2 2 3 5 2 3 6 2 5 1 4 3 5 4 4 4
5 4 5 8 9 10 12 12 13 16 16 8 4 4 3 2 6 1 3 1 1 3 6 5 5 4 3 3 4 2 3 3 5 2 3 2 4 3 4 1 1 3 3 4 6 4 2
4 5 3 6 8 9 10 11 13 14 11 3 3 1 3 4 4 2 1 4 4 4 5 3 3 4 4 3 4 3 4 2 5 3 2 1 3 4 9 6 5 3 2 4 5 4 6
4 4 5 5 7 8 9 12 14 13 8 5 4 3 6 6 1 7 5 2 4 4 5 6 4 5 5 5 6 2 2 3 6 4 6 5 3 6 6 7 4 5 4 4 5 3 4
4 4 4 6 7 8 10 12 14 14 8 4 4 1 3 1 5 4 4 2 3 3 3 6 5 5 4 3 3 3 3 5 4 6 4 4 2 4 6 9 7 11 12 8 9 8 7
5 4 3 5 8 6 10 12 14 14 7 6 4 5 4 3 2 4 5 1 4 3 3 2 6 2 4 4 4 2 2 2 5 2 2 3 3 0 5 3 4 9 12 11 9 7 12
6 5 5 6 7 6 9 12 14 15 6 3 0 2 6 5 3 5 3 4 4 6 5 3 9 5 3 5 5 3 5 1 1 2 2 0 4 3 7 3 8 9 6 5 4 5 7
7 6 5 5 5 4 7 10 11 13 7 4 1 4 6 2 3 3 2 2 4 2 7 3 5 5 3 4 4 5 5 5 1 3 4 5 4 3 4 4 2 11 2 7 7 9 10
7 6 5 5 4 4 6 8 10 10 9 4 2 4 5 2 2 3 5 5 3 4 4 4 3 1 5 6 5 7 7 7 4 5 2 5 5 2 3 4 6 11 8 1 5 7 3
9 7 5 5 3 3 5 7 8 10 10 4 3 2 5 8 6 3 4 3 4 2 4 2 3 3 7 4 5 4 3 5 5 5 5 5 5 4 1 4 6 8 3 1 2 7 1
10 9 7 5 4 3 3 6 7 8 10 4 2 2 5 5 2 4 3 6 5 3 3 2 3 4 4 3 3 4 4 2 3 3 3 1 1 7 7 5 9 9 6 1 3 4 3
12 10 9 7 6 4 2 4 7 7 9 4 1 3 4 4 3 4 4 5 3 3 5 4 5 4 3 4 4 3 3 6 1 4 5 5 4 5 2 3 10 3 1 1 9 1 8
13 11 10 9 7 6 4 1 5 7 8 3 3 2 2 5 3 1 2 0 3 7 7 1 4 4 5 5 1 3 3 2 5 4 1 5 8 4 8 9 5 4 7 10 5 7 5
Wind_Direction
328 332 327 330 326 322 318 313 308 297 283 269 256 249 243 240 239 240 248 259 272 277 282 289 317 321 310 47 269 308 341 24 47 7 39 44 52 80 74 70 73 72 139 170 193 166 216
341 338 334 332 333 323 329 328 317 300 282 272 257 239 234 235 233 236 240 249 256 270 287 301 296 304 210 76 274 343 347 48 40 51 29 48 63 81 88 74 82 78 145 345 331 180 186
345 344 336 334 327 331 338 336 319 316 312 295 278 266 251 241 234 230 234 241 252 263 280 279 286 286 71 197 7 338 22 42 27 347 54 44 108 72 112 109 322 46 41 11 19 333 330
351 347 342 336 337 336 339 340 336 332 317 290 265 251 250 239 229 225 223 229 245 260 268 276 294 260 84 294 305 16 354 340 350 70 67 313 78 99 48 32 28 36 47 36 323 26 16
353 347 343 340 341 346 347 355 351 341 305 261 234 227 224 226 225 221 233 285 290 279 262 276 333 63 17 329 24 319 37 339 324 359 34 55 62 81 22 60 29 8 94 345 323 58 12
353 353 346 344 347 348 353 357 360 1 5 4 40 37 257 228 246 121 99 98 245 274 242 255 78 46 353 317 304 346 337 15 31 358 23 37 50 63 28 49 191 302 354 308 253 321 0
352 354 353 349 351 351 353 3 5 5 10 20 22 12 334 285 244 161 112 218 15 2 40 93 307 147 290 285 349 341 352 14 36 51 48 6 64 55 351 15 213 139 225 290 263 274 350
357 358 355 355 354 349 353 3 5 3 11 13 12 354 309 259 225 169 296 80 134 180 41 60 284 322 264 116 26 337 36 70 56 66 27 32 70 334 109 54 67 37 18 312 295 283 171
359 357 356 352 353 347 353 358 4 5 5 3 357 343 319 291 194 117 82 84 301 131 90 330 324 351 312 48 29 333 38 47 64 45 30 113 35 54 85 33 32 331 204 247 244 327 38
2 354 359 346 346 341 350 351 358 1 359 355 348 337 330 308 45 279 50 320 311 113 76 313 345 0 2 45 51 348 12 76 33 85 80 64 20 72 53 50 59 317 144 272 266 59 238
350 357 352 345 344 343 343 344 348 352 351 348 351 348 31 85 151 65 172 302 105 57 68 279 314 286 24 83 261 338 337 33 58 30 76 290 37 48 46 312 307 246 342 278 260 139 85
340 355 347 346 342 341 341 341 343 345 346 346 352 349 325 29 48 30 343 65 46 45 22 342 351 7 45 15 26 336 21 43 69 64 33 16 323 52 298 306 355 293 33 43 47 73 44
339 346 347 346 340 339 341 339 340 343 342 344 8 51 61 83 156 311 69 48 45 96 282 7 38 54 70 18 40 33 22 32 46 43 5 340 356 321 30 9 352 24 40 357 5 11 216
345 339 344 341 336 338 341 339 340 346 346 351 64 75 5 70 324 86 53 52 76 251 301 343 54 61 82 10 30 17 50 26 12 51 79 45 339 2 340 26 283 8 95 134 185 278 277
331 337 336 337 338 338 341 340 341 349 353 1 126 17 42 335 345 62 73 57 185 209 254 85 56 72 14 16 108 81 56 59 357 3 92 53 293 323 344 322 71 329 44 156 105 9 38
314 326 337 335 341 336 338 342 344 351 352 344 82 60 344 315 359 63 73 161 116 205 111 69 104 10 113 351 67 75 43 297 324 27 150 329 328 278 293 6 23 95 136 34 9 56 306
290 309 332 334 342 336 338 343 345 351 347 318 62 61 263 341 61 51 120 206 138 19 117 63 116 90 77 78 57 65 90 313 12 6 59 48 72 293 11 37 13 1 24 52 107 114 179
271 292 324 336 336 337 339 342 347 349 344 47 95 63 297 63 54 25 91 77 148 351 39 64 88 87 86 57 62 88 115 45 356 356 43 359 134 291 253 169 280 96 122 104 111 297 215
272 275 302 332 335 334 336 342 347 346 4 112 92 208 316 97 113 354 242 62 73 43 30 66 70 56 48 71 88 48 64 8 14 64 98 173 355 4 345 18 7 88 201 108 98 78 214
252 274 296 322 326 328 342 349 349 345 3 86 87 51 338 46 61 118 111 60 96 34 63 69 89 70 70 44 19 103 50 353 350 36 67 91 117 157 195 236 228 257 195 192 141 216 223
222 259 282 303 323 339 348 351 347 347 2 85 38 221 185 284 352 90 84 98 102 83 73 40 40 58 118 81 33 46 12 342 2 1 49 86 205 194 247 261 276 277 274 249 200 227 222
200 234 266 290 307 355 350 352 345 350 355 75 120 126 30 67 4 80 11 56 126 112 84 55 117 105 93 129 154 217 181 191 244 352 78 22 260 333 277 308 297 273 260 242 262 251 238
183 207 245 270 303 2 357 353 352 354 12 92 277 48 100 319 42 77 233 161 161 119 24 139 146 105 77 183 188 207 201 232 20 171 167 20 124 66 276 8 324 316 264 184 209 225 212
186 191 221 267 302 357 1 356 355 8 30 116 163 103 82 270 94 159 173 93 127 131 140 133 118 107 211 83 67 32 45 26 359 264 185 139 106 124 260 348 161 247 250 230 210 255 267
188 199 215 237 280 333 2 356 6 9 16 87 121 102 112 102 194 11 109 109 90 52 70 120 48 52 111 52 49 17 346 18 343 28 98 136 134 195 239 211 293 293 294 232 184 262 265
187 194 216 228 236 300 359 9 10 11 12 84 68 102 98 118 248 164 129 143 151 119 21 93 63 39 64 83 72 126 233 223 310 331 60 65 72 124 123 251 261 236 253 20 136 292 317
186 187 200 218 228 245 331 3 17 17 16 85 63 73 89 102 256 130 158 172 129 87 131 324 167 32 31 75 103 149 243 209 243 192 266 347 230 228 247 254 271 254 271 290 88 263 317
183 185 189 197 206 216 253 358 13 19 15 70 127 20 105 111 266 190 160 129 106 106 138 207 55 350 75 89 134 201 147 232 157 244 198 200 188 209 165 224 279 217 82 168 236 278 270
184 184 189 187 191 196 197 90 34 21 11 57 74 1 26 96 202 316 287 221 160 179 133 357 175 164 177 93 151 118 211 184 179 259 118 264 196 194 189 218 224 218 287 284 293 274 297